ATLAS 5 CENTAUR DEB, 43981

Orbit data source: Space-Track

ATLAS 5 CENTAUR DEB, 43981 is space debris in HEO originally from a launch on Wed, 17 Sep 2014 UTC launched from the Air Force Eastern Test Range (AFETR). Debris objects in space refer to the collection of defunct objects orbiting the Earth. Examples of debris include non-operational satellites, rocket bodies, and fragments generated from explosions, collisions, or faulty payload assembly.

Loading next visibility...
Identifier
43981, 2014-055AL
Orbit
HEO
Last TLE update
2 days ago
Origin
Manufacturer
Unknown
Mission
Spacecraft
Bus & Motor
Unknown
Mass
Unknown
Launch date (UTC)
2014-09-17 (11 years ago)
Launch vehicle
Unknown
Launch site
Air Force Eastern Test Range (AFETR)
Object type
Payload
Rocket body
Debris
Shape & HBR
Unknown
Radar Cross Section
Small (<0.1 m²)

Expand to show TLE details & history

TLE from 2 days ago
0 ATLAS 5 CENTAUR DEB
1 43981U 14055AL  25127.39904195 -.00000016  00000-0  00000-0 0  9995
2 43981  19.3036 179.1482 5219146  97.3214 322.1038  1.78787788 43529
Epoch: 2025-05-07T09:34Z
Definitive object data (Epoch: 2025-05-07T09:34:37.224Z)
Latitude
-0.00002°
Longitude
170.12007°
Altitude
15,936.893 km
Speed
4.672 km/s
True Right ascension
11h 57m 02s
True Declination
0° 00' 00"
Sunlit
Object was in daylight at TLE epoch
Visualization TLE readout
Latitude
-17.32404°
Longitude
52.76567°
Altitude
30,633.633 km
Speed
2.764 km/s
Apparent Right ascension
04h 00m 09s
Apparent Declination
-20° 37' 10"
Sunlit
Object is in daylight
Visualization observer readout
Local Sidereal Time
15:05:53
Azimuth
325.012° NNW
Elevation
-67.486°
Doppler factor
1
Orbital elements
Apogee altitude
37,266.594 km
Perigee altitude
7,332.165 km
Semi-major axis
28,677.517 km
Eccentricity
0.5219146
Inclination
19.3036°
RAAN
179.1482°
Arg. of periapsis
97.3214°
True anomaly
262.68368°
Mean anomaly
322.1038°
Eccentric anomaly
295.00259°
Mean motion
0.44692 °/min
BSTAR
Unknown
Orbital period
805.51 mins
Loading maneuver chart data...
Loading SW <> Apogee altitude chart data...
Loading historical data...
Loading historical data...
Loading historical data...
Loading historical data...
Loading historical data...
Loading historical data...
Loading historical data...

ATLAS 5 CENTAUR DEB Visibility forecast

Observer location: undefined°, undefined°

Span
Click to sort rows by Start time (UTC) header in descending order
Start Az.
Max El. time (UTC)
Max El. Az.
Max El.
End time (UTC)
End Az.
769 mins2025-05-09 17:12:58.677Z253.577° W2025-05-10 05:22:58.677Z162.728° S34.949°2025-05-10 06:01:58.677Z96.25° ESE
|